TimeCDT,TemperatureF,Dew PointF,Humidity,Sea Level PressureIn,VisibilityMPH,Wind Direction,Wind SpeedMPH,Gust SpeedMPH,PrecipitationIn,Events,Conditions,WindDirDegrees,DateUTC
12:14 AM,73.4,62.6,69,29.78,10.0,SSW,4.6,-,N/A,,Mostly Cloudy,200,2013-09-27 05:14:00
12:34 AM,71.6,62.6,73,29.78,10.0,SSE,5.8,-,N/A,,Scattered Clouds,160,2013-09-27 05:34:00
12:54 AM,71.6,62.6,73,29.78,10.0,South,5.8,-,N/A,,Clear,170,2013-09-27 05:54:00
1:14 AM,69.8,62.6,78,29.78,10.0,South,5.8,-,N/A,,Clear,170,2013-09-27 06:14:00
1:34 AM,69.8,62.6,78,29.79,10.0,SW,5.8,-,N/A,,Clear,230,2013-09-27 06:34:00
1:54 AM,66.2,62.6,88,29.79,10.0,Calm,Calm,-,N/A,,Clear,0,2013-09-27 06:54:00
2:14 AM,64.4,60.8,88,29.79,10.0,Calm,Calm,-,N/A,,Clear,0,2013-09-27 07:14:00
2:34 AM,64.4,60.8,88,29.79,10.0,Calm,Calm,-,N/A,,Clear,0,2013-09-27 07:34:00
2:54 AM,64.4,60.8,88,29.78,10.0,Calm,Calm,-,N/A,,Clear,0,2013-09-27 07:54:00
3:14 AM,62.6,60.8,94,29.78,10.0,Calm,Calm,-,N/A,,Clear,0,2013-09-27 08:14:00
3:34 AM,62.6,60.8,94,29.77,10.0,WNW,3.5,-,N/A,,Scattered Clouds,300,2013-09-27 08:34:00
3:55 AM,62.6,60.8,94,29.77,10.0,WNW,3.5,-,N/A,,Mostly Cloudy,290,2013-09-27 08:55:00
4:14 AM,62.6,60.8,94,29.79,10.0,West,3.5,-,N/A,,Mostly Cloudy,280,2013-09-27 09:14:00
4:34 AM,62.6,60.8,94,29.78,10.0,West,3.5,-,N/A,Rain-Thunderstorm,Light Thunderstorms and Rain,280,2013-09-27 09:34:00
4:56 AM,62.6,60.8,94,29.77,10.0,Calm,Calm,-,N/A,Rain-Thunderstorm,Light Thunderstorms and Rain,0,2013-09-27 09:56:00
5:14 AM,62.6,60.8,94,29.76,10.0,NNW,3.5,-,N/A,Rain,Light Rain,340,2013-09-27 10:14:00
5:34 AM,60.8,60.8,100,29.78,10.0,Calm,Calm,-,N/A,Thunderstorm,Thunderstorm,0,2013-09-27 10:34:00
5:54 AM,60.8,59.0,94,29.76,5.0,SE,3.5,-,N/A,,Scattered Clouds,130,2013-09-27 10:54:00
6:15 AM,60.8,59.0,94,29.76,5.0,SE,3.5,-,N/A,,Scattered Clouds,130,2013-09-27 11:15:00
6:35 AM,59.0,57.2,94,29.76,4.0,Calm,Calm,-,N/A,Rain,Light Rain,0,2013-09-27 11:35:00
6:54 AM,59.0,57.2,94,29.76,4.0,West,3.5,-,N/A,,Clear,280,2013-09-27 11:54:00
7:15 AM,59.0,57.2,94,29.76,7.0,Calm,Calm,-,N/A,,Clear,0,2013-09-27 12:15:00
7:34 AM,59.0,57.2,94,29.76,5.0,Calm,Calm,-,N/A,,Clear,0,2013-09-27 12:34:00
7:54 AM,59.0,57.2,94,29.76,4.0,Calm,Calm,-,N/A,,Clear,0,2013-09-27 12:54:00
8:14 AM,60.8,59.0,94,29.76,5.0,Calm,Calm,-,N/A,,Clear,0,2013-09-27 13:14:00
8:34 AM,60.8,59.0,94,29.75,7.0,Calm,Calm,-,N/A,,Clear,0,2013-09-27 13:34:00
8:54 AM,60.8,59.0,94,29.75,10.0,Calm,Calm,-,N/A,,Clear,0,2013-09-27 13:54:00
9:14 AM,62.6,60.8,94,29.74,10.0,Calm,Calm,-,N/A,,Clear,0,2013-09-27 14:14:00
9:34 AM,64.4,60.8,88,29.75,10.0,Calm,Calm,-,N/A,,Clear,0,2013-09-27 14:34:00
9:54 AM,64.4,62.6,94,29.75,10.0,Calm,Calm,-,N/A,,Clear,0,2013-09-27 14:54:00
10:15 AM,64.4,62.6,94,29.75,10.0,West,4.6,-,N/A,,Clear,280,2013-09-27 15:15:00
10:35 AM,66.2,62.6,88,29.75,10.0,WSW,3.5,-,N/A,,Clear,250,2013-09-27 15:35:00
10:55 AM,68.0,62.6,83,29.74,10.0,WNW,5.8,-,N/A,,Clear,300,2013-09-27 15:55:00
11:14 AM,69.8,64.4,83,29.73,10.0,Calm,Calm,-,N/A,,Clear,0,2013-09-27 16:14:00
11:34 AM,71.6,64.4,78,29.73,10.0,Calm,Calm,-,N/A,,Scattered Clouds,0,2013-09-27 16:34:00
11:54 AM,73.4,66.2,78,29.71,10.0,Calm,Calm,-,N/A,,Scattered Clouds,0,2013-09-27 16:54:00
12:14 PM,75.2,66.2,73,29.72,10.0,South,12.7,18.4,N/A,,Scattered Clouds,170,2013-09-27 17:14:00
12:34 PM,78.8,66.2,65,29.71,10.0,South,15.0,23.0,N/A,,Mostly Cloudy,170,2013-09-27 17:34:00
12:54 PM,77.0,66.2,69,29.71,10.0,South,11.5,21.9,N/A,,Scattered Clouds,170,2013-09-27 17:54:00
1:15 PM,75.2,66.2,73,29.69,10.0,SSE,6.9,21.9,N/A,Rain,Light Rain,150,2013-09-27 18:15:00
1:34 PM,75.2,66.2,73,29.69,10.0,SE,10.4,-,N/A,,Light Drizzle,140,2013-09-27 18:34:00
1:54 PM,80.6,69.8,70,29.68,10.0,SE,11.5,17.3,N/A,,Clear,140,2013-09-27 18:54:00
2:15 PM,80.6,68.0,65,29.68,10.0,SSE,11.5,19.6,N/A,,Scattered Clouds,160,2013-09-27 19:15:00
2:34 PM,78.8,66.2,65,29.68,10.0,SSE,10.4,17.3,N/A,,Mostly Cloudy,150,2013-09-27 19:34:00
2:55 PM,78.8,66.2,65,29.68,10.0,SSE,10.4,18.4,N/A,,Scattered Clouds,150,2013-09-27 19:55:00
3:14 PM,78.8,66.2,65,29.68,10.0,SE,12.7,17.3,N/A,,Scattered Clouds,140,2013-09-27 20:14:00
3:34 PM,78.8,66.2,65,29.68,10.0,SE,10.4,20.7,N/A,,Mostly Cloudy,140,2013-09-27 20:34:00
3:54 PM,78.8,66.2,65,29.70,10.0,SSW,10.4,18.4,N/A,,Mostly Cloudy,200,2013-09-27 20:54:00
4:15 PM,71.6,62.6,73,29.72,10.0,WNW,12.7,-,N/A,,Mostly Cloudy,300,2013-09-27 21:15:00
4:34 PM,66.2,57.2,73,29.72,10.0,WNW,15.0,20.7,N/A,,Mostly Cloudy,290,2013-09-27 21:34:00
4:54 PM,64.4,57.2,77,29.74,10.0,WNW,9.2,-,N/A,,Mostly Cloudy,300,2013-09-27 21:54:00
5:15 PM,64.4,55.4,73,29.72,10.0,NW,11.5,16.1,N/A,,Scattered Clouds,320,2013-09-27 22:15:00
5:34 PM,62.6,55.4,77,29.76,10.0,WNW,11.5,-,N/A,,Scattered Clouds,300,2013-09-27 22:34:00
5:55 PM,62.6,55.4,77,29.77,10.0,WNW,9.2,-,N/A,,Mostly Cloudy,300,2013-09-27 22:55:00
6:14 PM,60.8,55.4,82,29.76,10.0,WNW,8.1,-,N/A,,Scattered Clouds,300,2013-09-27 23:14:00
6:34 PM,60.8,55.4,82,29.77,10.0,WNW,12.7,-,N/A,,Clear,300,2013-09-27 23:34:00
6:54 PM,60.8,55.4,82,29.79,10.0,WNW,9.2,-,N/A,,Scattered Clouds,290,2013-09-27 23:54:00
7:14 PM,59.0,53.6,82,29.78,10.0,WNW,6.9,-,N/A,Rain,Light Rain,290,2013-09-28 00:14:00
7:34 PM,57.2,53.6,88,29.78,10.0,NW,5.8,-,N/A,,Scattered Clouds,310,2013-09-28 00:34:00
7:54 PM,57.2,53.6,88,29.79,10.0,WNW,9.2,-,N/A,,Scattered Clouds,290,2013-09-28 00:54:00
8:14 PM,57.2,53.6,88,29.79,10.0,WNW,8.1,-,N/A,,Clear,300,2013-09-28 01:14:00
8:35 PM,57.2,53.6,88,29.78,10.0,WNW,4.6,-,N/A,,Clear,300,2013-09-28 01:35:00
8:54 PM,57.2,53.6,88,29.78,10.0,NW,4.6,-,N/A,,Clear,310,2013-09-28 01:54:00
9:15 PM,55.4,53.6,94,29.79,10.0,WNW,5.8,-,N/A,,Scattered Clouds,300,2013-09-28 02:15:00
9:34 PM,55.4,53.6,94,29.79,10.0,NW,4.6,-,N/A,,Scattered Clouds,310,2013-09-28 02:34:00
9:54 PM,55.4,53.6,94,29.79,10.0,WNW,5.8,-,N/A,Thunderstorm,Mostly Cloudy,300,2013-09-28 02:54:00
10:14 PM,55.4,53.6,94,29.78,5.0,NW,9.2,-,N/A,Rain-Thunderstorm,Rain,310,2013-09-28 03:14:00
10:34 PM,55.4,53.6,94,29.82,5.0,West,4.6,-,N/A,Rain-Thunderstorm,Heavy Thunderstorms and Rain,270,2013-09-28 03:34:00
10:54 PM,55.4,53.6,94,29.79,2.5,North,4.6,-,N/A,Rain-Thunderstorm,Heavy Thunderstorms and Rain,350,2013-09-28 03:54:00
11:15 PM,55.4,53.6,94,29.78,4.0,NNW,5.8,-,N/A,Rain-Thunderstorm,Heavy Thunderstorms and Rain,330,2013-09-28 04:15:00
11:34 PM,55.4,53.6,94,29.78,4.0,NNW,9.2,-,0.37,Rain-Thunderstorm,Rain,330,2013-09-28 04:34:00
11:54 PM,55.4,53.6,94,29.78,10.0,NW,3.5,-,0.40,Rain,Light Rain,320,2013-09-28 04:54:00